EW7144 Weather Reports


time (UTC)temp
F
wind
direction
speed
knots
gust
knots
rain 1hr
in
rain 24hr
in
rain mn
in
humidity
%
barometer
mb
20260831103904 49 235 5.2 12.2 0.00 0.02 0.01 76 1005.7
20260831103405 49 211 7.8 20.0 0.00 0.02 0.01 76 1005.8
20260831101404 50 178 5.2 17.4 0.00 0.02 0.01 75 1005.7
20260831100905 50 201 6.1 19.1 0.00 0.02 0.01 74 1005.7
20260831100404 50 193 10.4 17.4 0.00 0.02 0.01 74 1005.5
20260831095904 50 217 10.4 20.0 0.00 0.02 0.01 73 1005.3
20260831095405 50 224 6.1 18.2 0.00 0.02 0.01 74 1005.2
20260831094905 50 215 7.8 17.4 0.00 0.02 0.01 73 1005.1
20260831094404 51 210 11.3 30.4 0.00 0.02 0.01 73 1005.0
20260831093404 51 211 10.4 27.8 0.00 0.02 0.01 72 1004.8
20260831092904 52 193 8.7 20.0 0.00 0.02 0.01 71 1004.7
20260831092408 52 206 14.8 30.4 0.00 0.02 0.01 72 1004.4
20260831091906 52 214 8.7 25.2 0.00 0.02 0.01 71 1004.3
20260831091406 52 255 10.4 20.0 0.00 0.02 0.01 72 1004.1
20260831090905 51 216 11.3 22.6 0.00 0.02 0.01 72 1004.1
20260831090405 51 203 11.3 22.6 0.00 0.02 0.01 73 1004.0
20260831085905 51 304 10.4 22.6 0.00 0.02 0.01 74 1004.0
20260831085405 51 191 8.7 21.7 0.00 0.02 0.01 74 1003.8
20260831084905 51 198 12.2 24.3 0.00 0.02 0.01 74 1003.8
20260831084405 51 223 11.3 27.8 0.00 0.02 0.01 74 1003.7
20260831083404 50 241 10.4 22.6 0.00 0.02 0.01 78 1003.6
20260831082904 50 293 7.8 22.6 0.00 0.02 0.01 79 1003.7
20260831081904 50 218 10.4 27.8 0.01 0.02 0.01 80 1003.6
20260831081408 50 303 10.4 26.9 0.01 0.02 0.01 79 1003.4
20260831080905 51 282 11.3 22.6 0.01 0.02 0.01 78 1003.6
20260831080405 51 244 8.7 22.6 0.01 0.02 0.01 79 1003.5
20260831075904 51 228 11.3 28.7 0.01 0.02 0.01 79 1003.4
20260831074904 50 215 9.6 26.1 0.01 0.02 0.01 80 1003.2
20260831074405 50 215 7.8 21.7 0.01 0.02 0.01 81 1003.1
20260831073405 50 217 9.6 20.9 0.01 0.02 0.01 82 1003.0
20260831072905 50 212 11.3 24.3 0.01 0.02 0.01 81 1002.9
20260831072404 51 221 10.4 22.6 0.01 0.02 0.01 80 1002.9
20260831071905 50 205 11.3 21.7 0.00 0.02 0.00 80 1002.7
20260831071404 50 213 12.2 22.6 0.00 0.02 0.00 81 1002.7
20260831070905 49 235 11.3 30.4 0.00 0.02 0.00 82 1002.7
20260831065404 49 235 11.3 24.3 0.00 0.02 0.00 81 1002.7
20260831064405 50 247 13.9 28.7 0.00 0.02 0.00 79 1002.8
20260831063904 51 222 11.3 26.1 0.00 0.02 0.00 76 1002.8
20260831063404 51 211 7.8 20.0 0.00 0.02 0.00 75 1002.8
20260831062904 51 193 11.3 22.6 0.00 0.02 0.00 75 1002.7
20260831062404 51 225 11.3 22.6 0.00 0.02 0.00 74 1002.5
20260831061905 52 202 10.4 21.7 0.00 0.02 0.00 73 1002.5
20260831061404 52 203 17.4 31.3 0.00 0.02 0.00 72 1002.3
20260831060906 52 212 13.9 28.7 0.00 0.02 0.00 71 1002.5
20260831060405 53 220 13.9 27.8 0.00 0.02 0.00 71 1002.7
20260831055904 53 268 10.4 25.2 0.00 0.02 0.00 71 1002.4
20260831055404 53 202 13.0 25.2 0.00 0.02 0.00 71 1002.1
20260831054904 53 205 12.2 30.4 0.00 0.02 0.00 70 1002.1
20260831054404 53 207 13.9 30.4 0.00 0.02 0.00 70 1001.9
20260831053904 53 210 12.2 24.3 0.00 0.02 0.00 70 1001.7
20260831053404 54 218 13.0 24.3 0.00 0.02 0.00 69 1001.9
20260831052904 54 218 13.9 28.7 0.00 0.02 0.00 69 1001.8
20260831052404 54 219 13.0 28.7 0.00 0.02 0.00 70 1001.9
20260831051904 54 229 12.2 26.1 0.00 0.02 0.00 69 1002.0
20260831051404 54 216 13.0 30.4 0.00 0.02 0.00 69 1001.9
20260831050405 55 212 11.3 26.9 0.00 0.02 0.00 66 1001.9
20260831045904 55 195 15.6 28.7 0.00 0.02 0.00 67 1001.6
20260831045406 55 202 13.9 30.4 0.00 0.02 0.00 68 1001.7
20260831044904 55 198 13.9 25.2 0.00 0.02 0.00 70 1001.6
20260831044405 55 222 13.9 33.0 0.00 0.02 0.00 70 1001.7
20260831043904 55 210 14.8 37.4 0.00 0.02 0.00 71 1001.6
20260831043404 55 206 14.8 28.7 0.00 0.02 0.00 71 1001.4
20260831042904 55 204 14.8 28.7 0.00 0.02 0.00 71 1001.4
20260831042405 55 221 13.9 27.8 0.00 0.02 0.00 71 1001.5
20260831041904 56 231 12.2 21.7 0.00 0.02 0.00 71 1001.3
20260831041404 55 221 12.2 25.2 0.00 0.02 0.00 71 1001.4
20260831040905 55 202 13.9 31.3 0.00 0.02 0.00 70 1001.5
20260831040406 55 266 14.8 31.3 0.00 0.02 0.00 71 1001.3
20260831035905 55 249 13.9 31.3 0.00 0.02 0.00 73 1001.5
20260831035405 55 253 13.0 26.1 0.00 0.02 0.00 74 1001.6
20260831034904 55 221 11.3 20.0 0.00 0.02 0.00 74 1001.4
20260831034404 55 216 11.3 26.9 0.00 0.02 0.00 73 1001.4
20260831033904 55 217 12.2 30.4 0.00 0.02 0.00 73 1001.3
20260831033404 55 224 12.2 37.4 0.00 0.02 0.00 74 1001.4
20260831031404 55 213 12.2 32.2 0.00 0.02 0.00 74 1001.4
20260831030404 54 250 15.6 30.4 0.00 0.02 0.00 76 1001.2
20260831025404 55 216 12.2 33.9 0.00 0.02 0.00 76 1001.4
20260831024904 55 259 14.8 26.9 0.00 0.02 0.00 73 1001.2
20260831024405 56 259 13.9 30.4 0.00 0.02 0.00 69 1001.1
20260831022904 57 234 12.2 30.4 0.00 0.02 0.00 69 1000.7
20260831022404 58 207 14.8 30.4 0.00 0.02 0.00 69 1000.6
20260831021904 57 227 11.3 27.8 0.00 0.02 0.00 68 1000.7
20260831021404 58 218 13.9 26.1 0.00 0.02 0.00 67 1000.4
20260831020904 57 228 13.9 31.3 0.00 0.02 0.00 68 1000.6
20260831020404 57 214 12.2 38.2 0.00 0.02 0.00 69 1000.4
20260831015904 57 209 15.6 30.4 0.00 0.02 0.00 68 1000.5
20260831015404 57 218 14.8 28.7 0.00 0.02 0.00 68 1000.6
20260831014905 57 223 14.8 39.1 0.00 0.02 0.00 67 1000.3
20260831014404 58 213 13.9 30.4 0.00 0.02 0.00 69 1000.5
20260831013904 57 208 13.9 27.8 0.00 0.02 0.00 72 1000.7
20260831013404 57 198 12.2 26.9 0.00 0.02 0.00 73 1000.6
20260831012904 56 321 15.6 33.9 0.00 0.02 0.00 71 1000.3
20260831012405 56 228 15.6 42.6 0.00 0.02 0.00 71 1000.1
20260831011904 56 228 14.8 37.4 0.00 0.02 0.00 71 1000.2
20260831011404 56 213 13.0 28.7 0.00 0.02 0.00 73 1000.3
20260831010904 55 253 11.3 26.1 0.00 0.02 0.00 74 1000.3
20260831010404 54 300 15.6 33.0 0.00 0.02 0.00 76 1000.3
20260831005904 55 201 13.9 33.9 0.00 0.02 0.00 79 1000.5
20260831005405 56 287 13.9 28.7 0.00 0.02 0.00 77 1000.7
20260831004906 57 237 10.4 25.2 0.00 0.02 0.00 77 1000.6
20260831004405 57 274 11.3 22.6 0.00 0.02 0.00 76 1000.4
20260831003904 57 252 10.4 27.8 0.00 0.02 0.00 76 1000.6
20260831003404 57 257 10.4 27.8 0.00 0.02 0.00 76 1000.5
20260831002904 57 211 13.9 33.9 0.00 0.02 0.00 75 1000.5
20260831002405 57 300 13.9 33.9 0.00 0.02 0.00 75 1000.5
20260831001404 57 211 11.3 26.1 0.00 0.02 0.00 76 1001.0
20260831000905 57 270 12.2 26.9 0.00 0.02 0.00 77 1001.1
20260831000406 57 209 13.9 21.7 0.00 0.02 0.00 76 1000.9
20260830235905 57 274 12.2 26.1 0.00 0.02 0.00 76 1000.9
20260830235404 57 247 11.3 24.3 0.00 0.02 0.00 75 1000.7
20260830234904 57 293 15.6 30.4 0.00 0.02 0.00 73 1000.9
20260830234404 57 214 10.4 30.4 0.00 0.02 0.00 74 1000.8
20260830233904 57 304 13.0 25.2 0.00 0.02 0.00 73 1000.9
20260830233405 57 216 11.3 28.7 0.00 0.02 0.00 73 1000.8
20260830232904 57 232 10.4 22.6 0.00 0.02 0.00 73 1000.9
20260830232404 57 256 14.8 33.9 0.00 0.02 0.00 73 1000.9
20260830231904 56 209 12.2 25.2 0.00 0.02 0.00 75 1000.9
20260830231404 56 218 11.3 32.2 0.00 0.02 0.00 76 1000.9
20260830230408 56 265 13.9 28.7 0.00 0.02 0.00 74 1000.8
20260830225905 57 225 13.0 27.8 0.00 0.02 0.00 73 1000.9
20260830225405 57 235 11.3 22.6 0.00 0.02 0.00 73 1000.9
20260830224904 57 244 10.4 21.7 0.00 0.02 0.00 72 1001.0
20260830224404 56 206 13.9 26.1 0.00 0.02 0.00 72 1000.9
20260830223905 56 226 13.9 30.4 0.00 0.02 0.00 72 1001.0
20260830223405 56 207 10.4 31.3 0.00 0.02 0.00 73 1001.1
20260830222904 56 198 15.6 32.2 0.00 0.02 0.00 73 1001.1
20260830222405 56 202 14.8 26.9 0.00 0.02 0.00 75 1000.9
20260830221904 56 231 13.9 24.3 0.00 0.02 0.00 75 1000.8
20260830221405 56 242 14.8 22.6 0.00 0.02 0.00 75 1001.0
20260830220904 56 226 14.8 31.3 0.00 0.02 0.00 75 1000.7
20260830220405 56 248 13.9 33.0 0.00 0.02 0.00 76 1000.6
20260830215904 56 218 13.9 31.3 0.00 0.02 0.00 75 1000.5
20260830215404 55 232 12.2 22.6 0.00 0.02 0.00 75 1000.4
20260830214905 56 203 12.2 22.6 0.00 0.02 0.00 75 1001.0
20260830214404 56 246 10.4 27.8 0.00 0.02 0.00 75 1000.9
20260830213905 56 214 10.4 31.3 0.00 0.02 0.00 74 1001.1
20260830213405 56 299 13.9 32.2 0.00 0.02 0.00 73 1001.0
20260830212904 55 202 12.2 26.9 0.00 0.02 0.00 74 1000.9
20260830212404 55 199 11.3 24.3 0.00 0.02 0.00 75 1001.4
20260830211404 54 213 10.4 21.7 0.00 0.02 0.00 78 1001.3
20260830210904 54 243 7.8 24.3 0.00 0.02 0.00 79 1001.4
20260830210404 54 212 12.2 27.8 0.00 0.02 0.00 79 1001.5
20260830205905 55 210 13.0 28.7 0.00 0.02 0.00 77 1001.5
20260830205404 55 207 10.4 31.3 0.00 0.02 0.00 76 1001.2
20260830204904 55 224 13.9 30.4 0.00 0.02 0.00 76 1001.6
20260830204404 55 211 11.3 32.2 0.00 0.02 0.00 75 1001.5
20260830203904 55 215 7.8 26.1 0.00 0.02 0.00 75 1001.6
20260830203405 55 258 11.3 26.1 0.00 0.02 0.00 75 1001.7
20260830202904 54 199 8.7 26.1 0.00 0.02 0.00 75 1001.6
20260830202405 54 176 10.4 26.1 0.00 0.02 0.00 76 1001.6
20260830201905 54 188 11.3 28.7 0.00 0.02 0.00 77 1001.5
20260830201406 54 210 14.8 31.3 0.00 0.02 0.00 77 1001.5
20260830200905 54 209 12.2 27.8 0.00 0.02 0.00 78 1001.3
20260830200404 54 206 11.3 26.9 0.00 0.02 0.00 78 1001.0
20260830195904 54 250 13.9 26.1 0.00 0.02 0.00 78 1000.9
20260830195404 54 184 12.2 30.4 0.00 0.02 0.00 77 1001.0
20260830194904 54 218 11.3 30.4 0.00 0.02 0.00 78 1001.1
20260830194408 54 227 13.9 33.0 0.00 0.02 0.00 78 1001.0
20260830193905 54 250 11.3 25.2 0.00 0.02 0.00 78 1001.0
20260830192904 53 211 8.7 25.2 0.00 0.02 0.00 78 1001.0
20260830192405 53 215 8.7 20.9 0.00 0.02 0.00 78 1001.0
20260830191905 53 305 9.6 22.6 0.00 0.02 0.00 78 1001.0
20260830190904 53 210 13.9 33.0 0.00 0.02 0.00 79 1000.8
20260830190404 53 212 12.2 26.1 0.00 0.02 0.00 80 1000.9
20260830185404 53 271 10.4 25.2 0.00 0.02 0.00 81 1000.9
20260830184404 53 231 12.2 20.9 0.00 0.02 0.00 81 1000.7
20260830183404 53 235 12.2 33.9 0.00 0.02 0.00 81 1000.8
20260830182904 53 221 12.2 26.9 0.00 0.02 0.00 81 1000.6
20260830182404 52 215 13.0 24.3 0.00 0.02 0.00 81 1000.7
20260830181904 52 207 10.4 21.7 0.00 0.02 0.00 81 1000.4
20260830181405 52 196 12.2 27.8 0.00 0.02 0.00 80 1000.6
20260830180904 52 221 10.4 25.2 0.00 0.02 0.00 80 1000.5
20260830180404 52 209 12.2 28.7 0.00 0.02 0.00 79 1000.5
20260830175904 53 222 9.6 22.6 0.00 0.02 0.00 81 1000.5
20260830175404 53 264 10.4 28.7 0.00 0.02 0.00 81 1000.5
20260830174904 54 214 13.0 30.4 0.00 0.02 0.00 81 1000.0
20260830174404 54 352 12.2 24.3 0.00 0.02 0.00 82 1000.0
20260830173904 54 218 11.3 33.0 0.00 0.02 0.00 83 1000.0
20260830173404 54 242 8.7 21.7 0.00 0.02 0.00 83 999.7
20260830172904 53 253 13.9 24.3 0.00 0.02 0.00 83 999.8
20260830172404 53 332 11.3 20.9 0.00 0.02 0.00 84 999.9
20260830171904 53 253 10.4 28.7 0.00 0.02 0.00 83 1000.3
20260830170904 52 305 13.9 30.4 0.00 0.02 0.00 82 1000.4
20260830170404 53 209 10.4 20.0 0.00 0.02 0.00 82 1000.4
20260830165904 54 263 13.9 21.7 0.00 0.02 0.00 80 1000.5
20260830165404 54 217 10.4 26.1 0.00 0.02 0.00 79 1000.4
20260830164404 54 273 12.2 28.7 0.00 0.02 0.00 79 1000.2
20260830163904 54 236 10.4 22.6 0.00 0.02 0.00 81 1000.5
20260830162904 53 234 8.7 20.9 0.00 0.03 0.00 80 1000.8
20260830162404 54 229 9.6 20.0 0.00 0.03 0.00 79 1000.8
20260830161408 54 217 11.3 22.6 0.00 0.03 0.00 78 1000.8
20260830160905 54 222 7.8 32.2 0.00 0.03 0.00 77 1001.1
20260830160404 54 217 14.8 30.4 0.00 0.03 0.00 77 1000.7
20260830155904 53 200 8.7 26.9 0.00 0.03 0.00 78 1000.9
20260830155404 53 269 8.7 20.0 0.00 0.03 0.00 78 1000.9
20260830154904 53 319 10.4 26.9 0.00 0.03 0.00 78 1000.9
20260830154404 53 204 13.9 22.6 0.00 0.03 0.00 78 1001.1
20260830153904 53 257 11.3 26.1 0.00 0.03 0.00 78 1001.0
20260830152904 53 232 10.4 21.7 0.00 0.03 0.00 78 1001.3
20260830152405 53 208 13.9 28.7 0.00 0.03 0.00 78 1001.3
20260830151904 53 205 6.1 19.1 0.00 0.03 0.00 77 1001.4
20260830151404 53 206 7.8 30.4 0.00 0.03 0.00 77 1001.3
20260830150904 52 280 9.6 20.9 0.00 0.03 0.00 76 1001.7
20260830150403 52 199 10.4 22.6 0.00 0.03 0.00 75 1001.6
20260830145904 52 213 7.8 13.9 0.00 0.03 0.00 75 1001.7
20260830145404 52 206 10.4 25.2 0.00 0.03 0.00 76 1001.6
20260830144904 52 227 7.8 17.4 0.00 0.03 0.00 76 1001.8
20260830144404 52 224 6.1 20.9 0.00 0.03 0.00 75 1001.9
20260830142904 53 295 7.8 15.6 0.00 0.03 0.00 75 1002.1
20260830142404 53 225 7.0 24.3 0.00 0.03 0.00 74 1002.3
20260830141904 52 208 7.8 21.7 0.00 0.03 0.00 75 1002.4
20260830141404 52 303 7.8 20.0 0.00 0.03 0.00 74 1002.5
20260830140904 52 199 7.8 17.4 0.00 0.03 0.00 74 1002.5
20260830140404 52 262 8.7 22.6 0.00 0.03 0.00 74 1002.3
20260830135904 52 212 8.7 26.1 0.00 0.03 0.00 75 1002.5
20260830135405 52 213 8.7 20.9 0.00 0.03 0.00 75 1002.4
20260830134904 52 230 7.0 20.0 0.00 0.03 0.00 75 1002.4
20260830133905 52 184 7.8 17.4 0.00 0.03 0.00 75 1002.5
20260830133403 52 223 2.6 17.4 0.00 0.03 0.00 75 1002.5
20260830132403 53 208 7.8 20.9 0.00 0.03 0.00 74 1002.5
20260830130904 52 204 8.7 21.7 0.00 0.03 0.00 75 1002.4
20260830130404 52 191 8.7 18.2 0.00 0.03 0.00 75 1002.3
20260830125907 53 214 7.0 19.1 0.02 0.03 0.00 75 1002.3
20260830125406 53 195 9.6 21.7 0.02 0.03 0.00 75 1002.2
20260830124907 53 203 8.7 19.1 0.02 0.03 0.00 76 1002.1
20260830123906 52 281 12.2 22.6 0.02 0.03 0.00 76 1002.1
20260830123406 52 287 4.3 14.8 0.02 0.03 0.00 77 1002.3
20260830122906 52 208 9.6 20.9 0.02 0.03 0.00 77 1002.2
20260830121906 52 196 9.6 22.6 0.02 0.03 0.00 77 1002.1
20260830121406 52 315 6.1 19.1 0.02 0.03 0.00 76 1002.2
20260830120906 52 207 7.8 20.9 0.02 0.03 0.00 76 1002.2
20260830115906 52 206 7.8 15.6 0.00 0.02 0.02 75 1002.1
20260830115407 52 218 8.7 22.6 0.00 0.02 0.02 74 1002.2
20260830114906 52 227 7.8 20.9 0.00 0.02 0.02 75 1002.3
20260830114407 52 199 7.8 17.4 0.00 0.02 0.02 74 1002.3
20260830113907 52 283 7.8 21.7 0.00 0.02 0.02 74 1002.4
20260830112906 52 237 7.8 17.4 0.00 0.02 0.02 74 1002.5
20260830112407 52 209 7.8 17.4 0.00 0.02 0.02 75 1002.5
20260830111907 52 205 10.4 20.0 0.00 0.02 0.02 74 1002.4
20260830111406 52 203 8.7 26.1 0.00 0.02 0.02 74 1002.3
20260830110907 53 219 7.8 20.9 0.00 0.02 0.02 74 1002.4
20260830105906 53 220 9.6 26.1 0.00 0.02 0.02 75 1002.3
20260830105406 52 226 8.7 20.0 0.00 0.02 0.02 75 1002.1
20260830104907 53 325 7.0 13.0 0.00 0.02 0.02 75 1002.2
20260830104407 53 228 6.1 20.9 0.00 0.02 0.02 75 1002.2